Biggs Army Air Field / Ft. Bl, TX

11:50 AM MDT on May 27, 2017 (GMT -0600)
Biggs Army Air Field

Weather History for KBIF - March, 2014

Change the Weather History Date:

Friday, March 7, 2014

  Actual Average (KELP) Record (KELP)
Temperature  
Mean Temperature 62 °F -  
Max Temperature 77 °F 65 °F 85 °F (1910)
Min Temperature 47 °F 39 °F 19 °F (1977)
Degree Days  
Heating Degree Days 3    
Growing Degree Days 12 (Base 50)    
Moisture  
Dew Point 24 °F    
Average Humidity 22    
Maximum Humidity 40    
Minimum Humidity 14    
Precipitation  
Precipitation 0.00 in - - ()
Sea Level Pressure  
Sea Level Pressure 29.78 in    
Wind  
Wind Speed 8 mph (West)    
Max Wind Speed 17 mph    
Max Gust Speed 33 mph    
Visibility 11 miles    
Events      
Averages and records for this station are not official NWS values.
T = Trace of Precipitation, MM = Missing Value Source: NWS Daily Summary

Daily Weather History Graph

Daily Weather History Graph

Search for Another Location

Airport or City:

Trip Planner

Search our weather history database for the weather conditions in past years. The results will help you decide how hot, cold, wet, or windy it might be!

Date:

Astronomy

Mar. 07, 2014 Rise Set
Actual Time 6:25 AM MST 6:07 PM MST
Civil Twilight 6:01 AM MST 6:32 PM MST
Nautical Twilight 5:32 AM MST 7:00 PM MST
Astronomical Twilight 5:04 AM MST 7:28 PM MST
Moon 10:42 AM MST (3/7) No Moon Set
Length of Visible Light 12h 31m
Length of Day
11h 42m
Waxing Crescent, 42% of the Moon is Illuminated
Mar 7
Waxing Crescent
Mar 8
First Quarter
Mar 16
Full
Mar 23
Last Quarter
Mar 30
New

Hourly Weather History & Observations

Time (MST) Temp. Dew Point Humidity Pressure Visibility Wind Dir Wind Speed Gust Speed Precip Events Conditions
12:56 AM 60.8 °F 24.8 °F 25% 29.83 in 7.0 mi South 5.8 mph - N/A   Mostly Cloudy
1:56 AM 53.6 °F 26.6 °F 35% 29.83 in 7.0 mi East 2.3 mph - N/A   Partly Cloudy
2:56 AM 55.2 °F 23.9 °F 30% 29.82 in 7.0 mi South 2.3 mph - N/A   Partly Cloudy
3:56 AM 50.0 °F 24.8 °F 37% 29.81 in 7.0 mi East 4.6 mph - N/A   Partly Cloudy
4:56 AM 47.5 °F 24.1 °F 40% 29.82 in 12.0 mi East 1.2 mph - N/A   Clear
5:56 AM 52.9 °F 22.1 °F 30% 29.81 in 11.0 mi ESE 4.6 mph - N/A   Clear
6:56 AM 55.9 °F 25.5 °F 31% 29.81 in 12.0 mi ESE 8.1 mph - N/A   Clear
7:56 AM 57.2 °F 25.9 °F 30% 29.83 in 11.0 mi SE 5.8 mph - N/A   Partly Cloudy
8:56 AM 62.8 °F 25.9 °F 25% 29.82 in 10.0 mi SE 8.1 mph - N/A   Clear
9:56 AM 70.9 °F 24.4 °F 18% 29.80 in 12.0 mi West 10.4 mph 17.3 mph N/A   Clear
10:56 AM 71.2 °F 25.7 °F 18% 29.78 in 12.0 mi WSW 11.5 mph - N/A   Clear
11:56 AM 73.2 °F 25.2 °F 17% 29.76 in 12.0 mi West 16.1 mph 21.9 mph N/A   Clear
12:27 PM 75.2 °F 24.8 °F 15% 29.90 in 12.0 mi West 12.7 mph 26.5 mph N/A   Clear
12:36 PM 75.2 °F 24.8 °F 15% 29.89 in 12.0 mi WSW 16.1 mph 24.2 mph N/A   Clear
12:56 PM 75.6 °F 24.3 °F 15% 29.72 in 12.0 mi WSW 17.3 mph 33.4 mph N/A   Clear
1:56 PM 75.9 °F 24.6 °F 15% 29.71 in 12.0 mi West 13.8 mph 27.6 mph N/A   Clear
2:56 PM 77.0 °F 24.6 °F 14% 29.68 in 12.0 mi West 16.1 mph 23.0 mph N/A   Clear
3:56 PM 74.8 °F 23.9 °F 15% 29.68 in 12.0 mi WNW 11.5 mph 23.0 mph N/A   Partly Cloudy
4:56 PM 74.5 °F 24.3 °F 15% 29.70 in 12.0 mi West 13.8 mph 26.5 mph N/A   Partly Cloudy
5:56 PM 71.4 °F 22.1 °F 16% 29.70 in 12.0 mi West 12.7 mph 17.3 mph N/A   Clear
6:56 PM 68.7 °F 20.5 °F 16% 29.72 in 12.0 mi NW 3.5 mph - N/A   Clear
7:56 PM 68.4 °F 18.9 °F 15% 29.75 in 12.0 mi NW 10.4 mph 19.6 mph N/A   Clear
8:56 PM 66.7 °F 21.4 °F 18% 29.76 in 12.0 mi NW 5.8 mph 15.0 mph N/A   Partly Cloudy
9:56 PM 66.7 °F 22.3 °F 18% 29.75 in 12.0 mi NW 6.9 mph 16.1 mph N/A   Mostly Cloudy
10:56 PM 66.0 °F 23.2 °F 20% 29.76 in 12.0 mi WNW 8.1 mph - N/A   Mostly Cloudy
11:56 PM 63.1 °F 24.3 °F 23% 29.78 in 12.0 mi NNW 4.6 mph - N/A   Mostly Cloudy